Terug naar catalogus

DELTA 1 DEB

ActiefSSO
NORAD 10828·DEBRIS·🇺🇸 United States

Gelanceerd Jul 29, 1976 vanaf Vandenberg Space Force Base

Loading…

Volgende Passages (komende 24 uur)

TLE

VersSource: Space-Track

Epoch: Sep 14, 2026, 03:36 UTC

1 10828U 76077BY  26257.15001588 -.00000034  00000-0  11020-3 0  9991
2 10828 102.5861 217.7232 0099259 184.5146 190.0242 12.22383154237585

Volg DELTA 1 DEB in realtime met AllMySat

Download on the App Store